[[{"header":{"parameterUnit":"m.s-1","parameterCategory":2,"la1":30.2991,"la2":30.254,"lo1":-89.0895,"lo2":-89.0444,"dy":0.0017,"dx":0.0017,"nx":28,"ny":28,"refTime":"2025-12-06T09:00:00:Z","depth":"0","parameterNumber":2,"parameterNumberName":"U-component_of_CURRENTS"},"data":[0,0,0,0,0,0,0,0,0,0,0,0,0,0,0,0,0,0,0,0,0,0,0,0,0,0,0,0,0,0,0,0,0,0,0,0,0,0,0,0,0,0,0,0,0,0,0,0,0,0,0,0,0,0,0,0,0,0,0.4099,0.41,0,0.4078,0.4077,0.4076,0.4037,0.4037,0.4037,0.4037,0.3904,0.3901,0.3897,0,0,0,0,0,0,0,0,0,0,0,0,0,0.4127,0.4125,0.4099,0.41,0.41,0.4078,0.4077,0.4076,0.4037,0.4037,0.4037,0.4037,0.3905,0.3901,0.3897,0,0,0,0,0,0,0,0,0,0,0,0,0,0.4103,0.4125,0.4099,0.4084,0.4083,0.4079,0.4077,0.4076,0.4037,0.4037,0.4037,0.4037,0.3907,0.3902,0.3896,0.3863,0,0,0.388,0.3878,0,0,0,0,0,0,0,0,0.4104,0.4101,0.4086,0.4085,0.4084,0.4068,0.4039,0.4002,0.4037,0.4046,0.4037,0.4037,0.3954,0.3945,0.3931,0.3857,0.3851,0.388,0.3876,0.3874,0.3873,0,0,0,0,0,0,0,0.4106,0.4102,0.4082,0.4087,0.4086,0.4087,0.4082,0.4031,0.3992,0.4045,0.4044,0.4055,0.3951,0.3936,0.3927,0.385,0.388,0.3875,0.3872,0.387,0.3755,0.3756,0,0,0,0,0,0,0.4124,0.4103,0.4083,0.4083,0.4104,0.4087,0.4081,0.4066,0.3995,0.3987,0.4055,0.4054,0.3945,0.3933,0.3922,0.3878,0.3874,0.3869,0.3866,0.3755,0.3755,0.3756,0,0,0,0,0,0,0.4124,0.4121,0.4084,0.4101,0.4097,0.4087,0.407,0.4066,0.4057,0.4005,0.3994,0.4053,0.3944,0.393,0.3882,0.3873,0.3867,0.3862,0.3755,0.3755,0.3756,0.3791,0,0,0,0,0,0,0.4124,0.4121,0.4117,0.4101,0.4097,0.4084,0.4071,0.4066,0.4068,0.4065,0.3999,0.3986,0.3943,0.389,0.3876,0.3865,0.3858,0.3755,0.3755,0.3755,0.3789,0.3792,0.3794,0,0,0,0,0,0.4125,0.4108,0.4116,0.4115,0.4091,0.4085,0.4081,0.4069,0.4068,0.4061,0.402,0.3989,0.3882,0.3885,0.387,0.3857,0.3755,0.3755,0.3755,0.3788,0.3792,0.3794,0,0,0,0,0,0,0.4105,0.4103,0.4111,0.4091,0.4098,0.4081,0.4075,0.4077,0.404,0.4035,0.3983,0.3967,0.3925,0.3889,0.3894,0.3828,0.3816,0.3813,0.3847,0.3849,0.3852,0.3873,0.3853,0,0,0,0,0,0.4107,0.41,0.4103,0.4092,0.4093,0.409,0.4088,0.4087,0.406,0.4045,0.4,0.3954,0.3913,0.3882,0.3839,0.3794,0.3816,0.378,0.3782,0.3785,0.3793,0.3843,0.3852,0.3757,0.3757,0.3757,0,0,0.4095,0.41,0.4093,0.4091,0.4088,0.4066,0.4085,0.4085,0.4062,0.4034,0.3977,0.396,0.3907,0.3862,0.3839,0.3828,0.3822,0.3785,0.3787,0.3795,0.3845,0.3855,0.3863,0.3757,0.3757,0.3757,0,0,0.4066,0.4074,0.4056,0.4055,0.407,0.4065,0.407,0.4059,0.405,0.401,0.3993,0.3984,0.3892,0.3875,0.3847,0.384,0.3841,0.382,0.3837,0.3886,0.3895,0.3903,0.3944,0.3956,0.3813,0.3813,0.3813,0,0.4052,0.4027,0.4052,0.4031,0.4027,0.4061,0.4033,0.4024,0.4,0.4011,0.399,0.3944,0.3899,0.388,0.3872,0.3846,0.3876,0.3828,0.3892,0.39,0.3908,0.3949,0.3961,0.3815,0.3815,0.3815,0.3815,0,0.4003,0.3985,0.3974,0.3956,0.3957,0.3944,0.3949,0.3953,0.3955,0.3964,0.3967,0.3935,0.3921,0.3901,0.387,0.3903,0.3908,0.3899,0.389,0.392,0.396,0.3973,0.3818,0.3817,0.3816,0.3816,0,0,0.3954,0.3939,0.3933,0.3919,0.3918,0.3912,0.3898,0.3912,0.394,0.3926,0.3957,0.3905,0.3952,0.3928,0.392,0.3947,0.4019,0.3943,0.3945,0.3995,0.4134,0.4111,0.4122,0.4029,0.4031,0.4033,0.4141,0,0.3904,0.3848,0.3861,0.3813,0.3784,0.3823,0.3817,0.3848,0.3885,0.3927,0.3953,0.397,0.3942,0.3961,0.3988,0.4022,0.4053,0.399,0.4088,0.409,0.4076,0.4136,0.4003,0.4087,0.4153,0.4156,0.4157,0,0.3848,0.382,0.3758,0.376,0.3756,0.3738,0.3787,0.3793,0.3883,0.3932,0.3994,0.4027,0.4075,0.4047,0.4131,0.4098,0.4118,0.4136,0.4141,0.4117,0.4091,0.4065,0.4106,0.3971,0.4176,0.4174,0.4173,0,0.3802,0.3756,0.3708,0.3696,0.3695,0.3698,0.3714,0.3796,0.3845,0.3958,0.4024,0.4097,0.4146,0.4188,0.4227,0.4191,0.4331,0.4285,0.4282,0.4281,0.4184,0.417,0.4113,0.4346,0.4346,0.4346,0.4345,0,0.3745,0.3709,0.3681,0.3651,0.3628,0.3657,0.3688,0.3748,0.3865,0.3937,0.4028,0.4108,0.4186,0.4267,0.428,0.434,0.438,0.4308,0.4317,0.4191,0.4177,0.4067,0.4022,0.435,0.4349,0.4348,0.4347,0,0.3705,0.368,0.3625,0.3603,0.3601,0.3588,0.3654,0.3704,0.3826,0.3929,0.3969,0.4146,0.4262,0.4332,0.4431,0.4411,0.4342,0.4465,0.4313,0.4301,0.4136,0.4099,0.3949,0.3829,0.4473,0.4473,0.4473,0,0.3677,0.3641,0.3584,0.3555,0.3539,0.3536,0.3558,0.367,0.3739,0.3939,0.399,0.4158,0.4272,0.444,0.4459,0.4515,0.4352,0.4392,0.4283,0.4129,0.4094,0.3921,0.3817,0.417,0.4168,0.4166,0.4165,0,0.3629,0.3609,0.357,0.3515,0.3497,0.348,0.3518,0.3565,0.371,0.3812,0.3971,0.4088,0.4284,0.4314,0.4412,0.4419,0.4176,0.4353,0.4232,0.3894,0.3664,0.3551,0.4097,0.4148,0.415,0.4151,0.4152,0.4153,0.3608,0.3572,0.3532,0.3476,0.3453,0.3426,0.3397,0.3473,0.3558,0.3673,0.3855,0.3961,0.4114,0.4255,0.423,0.4101,0.4076,0.3958,0.3942,0.3791,0.361,0.4124,0.4158,0.416,0.4162,0.4163,0.4164,0,0.3571,0.3547,0.3502,0.3421,0.3368,0.3374,0.3376,0.3339,0.3377,0.3512,0.3628,0.3739,0.3813,0.388,0.3858,0.3696,0.3515,0.3586,0.3295,0.3226,0.3726,0.3645,0.3523,0.3523,0.3523,0.3523,0.3523,0.3523,0.3561,0.3503,0.3472,0.3356,0.3301,0.3183,0.3151,0.3125,0.3168,0.3182,0.3217,0.3329,0.3536,0.3619,0.3466,0.3374,0.3065,0.296,0.2925,0.3273,0.3304,0.3334,0.3244,0.3039,0.3038,0.227,0.2264,0.226]},{"header":{"parameterUnit":"m.s-1","parameterCategory":2,"la1":30.2991,"la2":30.254,"lo1":-89.0895,"lo2":-89.0444,"dy":0.0017,"dx":0.0017,"nx":28,"ny":28,"refTime":"2025-12-06T09:00:00:Z","depth":"0","parameterNumber":3,"parameterNumberName":"V-component_of_CURRENTS"},"data":[0,0,0,0,0,0,0,0,0,0,0,0,0,0,0,0,0,0,0,0,0,0,0,0,0,0,0,0,0,0,0,0,0,0,0,0,0,0,0,0,0,0,0,0,0,0,0,0,0,0,0,0,0,0,0,0,0,0,-0.02,-0.0201,0,-0.023,-0.0231,-0.0231,-0.0249,-0.0249,-0.0249,-0.025,-0.0274,-0.0274,-0.0275,0,0,0,0,0,0,0,0,0,0,0,0,0,-0.0217,-0.0216,-0.02,-0.0201,-0.0201,-0.023,-0.0231,-0.0231,-0.0249,-0.0249,-0.025,-0.025,-0.0274,-0.0274,-0.0275,0,0,0,0,0,0,0,0,0,0,0,0,0,-0.0222,-0.0215,-0.02,-0.0215,-0.0217,-0.023,-0.0231,-0.0231,-0.0249,-0.0249,-0.025,-0.025,-0.0274,-0.0274,-0.0275,-0.0269,0,0,-0.0277,-0.0277,0,0,0,0,0,0,0,0,-0.0222,-0.0221,-0.0213,-0.0214,-0.0217,-0.0238,-0.0246,-0.0244,-0.0249,-0.0234,-0.025,-0.025,-0.0263,-0.0264,-0.0266,-0.027,-0.0271,-0.0277,-0.0277,-0.0277,-0.0277,0,0,0,0,0,0,0,-0.0221,-0.022,-0.021,-0.0213,-0.0216,-0.0242,-0.0242,-0.0246,-0.0244,-0.0235,-0.0238,-0.0245,-0.0264,-0.0265,-0.0266,-0.0272,-0.0277,-0.0277,-0.0277,-0.0278,-0.0261,-0.0261,0,0,0,0,0,0,-0.0218,-0.0219,-0.0209,-0.0211,-0.0223,-0.0241,-0.0241,-0.0229,-0.0244,-0.0247,-0.0244,-0.0245,-0.0264,-0.0266,-0.0267,-0.0232,-0.0277,-0.0278,-0.0278,-0.0262,-0.0261,-0.0261,0,0,0,0,0,0,-0.0218,-0.0216,-0.0207,-0.0219,-0.022,-0.024,-0.0226,-0.0229,-0.0227,-0.0251,-0.0254,-0.0239,-0.0264,-0.0267,-0.0254,-0.0235,-0.0278,-0.0278,-0.0263,-0.0262,-0.0261,-0.0181,0,0,0,0,0,0,-0.0218,-0.0215,-0.0209,-0.0218,-0.0219,-0.0195,-0.0226,-0.023,-0.0233,-0.0234,-0.0247,-0.025,-0.0265,-0.0253,-0.0255,-0.0236,-0.0279,-0.0264,-0.0263,-0.0261,-0.0184,-0.0177,-0.0171,0,0,0,0,0,-0.0218,-0.0194,-0.0208,-0.0207,-0.0208,-0.0194,-0.0196,-0.0212,-0.0232,-0.0215,-0.0227,-0.025,-0.0246,-0.0252,-0.0254,-0.0236,-0.0265,-0.0263,-0.0261,-0.0187,-0.0179,-0.0171,0,0,0,0,0,0,-0.0194,-0.0194,-0.0209,-0.0186,-0.0187,-0.0198,-0.0189,-0.0206,-0.0203,-0.0207,-0.0233,-0.0235,-0.0222,-0.0239,-0.0246,-0.0229,-0.0262,-0.0261,-0.0205,-0.0197,-0.019,-0.0172,-0.0279,0,0,0,0,0,-0.0188,-0.0172,-0.0178,-0.0162,-0.0157,-0.0175,-0.0176,-0.0185,-0.0187,-0.0188,-0.0196,-0.0209,-0.0218,-0.0214,-0.0223,-0.0205,-0.0233,-0.0198,-0.0191,-0.0185,-0.0172,-0.0203,-0.0197,-0.0255,-0.0255,-0.0255,0,0,-0.0178,-0.0177,-0.017,-0.0158,-0.016,-0.0125,-0.0174,-0.0162,-0.0138,-0.019,-0.0154,-0.0185,-0.0209,-0.0192,-0.0188,-0.02,-0.0183,-0.0183,-0.0177,-0.0168,-0.02,-0.0195,-0.019,-0.0254,-0.0254,-0.0254,0,0,-0.0132,-0.0141,-0.0104,-0.0092,-0.0089,-0.0094,-0.0087,-0.0088,-0.0092,-0.0073,-0.0109,-0.0123,-0.0123,-0.0136,-0.0146,-0.0107,-0.0151,-0.0115,-0.0056,-0.0086,-0.0081,-0.0078,-0.0102,-0.0102,-0.0105,-0.0105,-0.0105,0,-0.0119,-0.0069,-0.0093,-0.0045,-0.0026,-0.0071,-0.0016,-0.0023,-0.0022,-0.0019,-0.0048,-0.0068,-0.0096,-0.0082,-0.0073,-0.009,-0.0114,-0.0083,-0.0076,-0.0073,-0.0071,-0.0097,-0.0098,-0.0101,-0.0102,-0.0102,-0.0103,0,-0.0033,0.0005,0.0032,0.0079,0.0093,0.0132,0.0122,0.0125,0.0101,0.0093,0.0089,0.0042,0.0031,0.0011,-0.0019,-0.0012,-0.0037,-0.0069,-0.0095,-0.006,-0.009,-0.0092,-0.0095,-0.0097,-0.0098,-0.0099,0,0,0.0009,0.0081,0.0091,0.0136,0.0165,0.0191,0.0219,0.0239,0.0265,0.0227,0.0254,0.0206,0.0162,0.0147,0.0095,0.0064,0.0049,0.0012,0.0008,-0.0007,-0.0011,-0.0017,-0.002,0.0017,0.0017,0.0018,-0.0037,0,0.0089,0.0205,0.0212,0.0314,0.0377,0.0347,0.0381,0.0382,0.0372,0.0386,0.0303,0.0309,0.0221,0.021,0.0164,0.0084,0.0049,0.0068,-0.0046,-0.0049,-0.0055,-0.002,0.0023,-0.0021,-0.0039,-0.004,-0.004,0,0.0179,0.0247,0.0366,0.044,0.0462,0.0503,0.0544,0.0573,0.0561,0.0551,0.0521,0.0459,0.0407,0.0318,0.0196,0.0213,0.0111,0.0034,0.003,-0.0002,-0.0057,-0.006,-0.0024,-0.0199,-0.0043,-0.0043,-0.0042,0,0.0237,0.0351,0.0448,0.0482,0.0557,0.0581,0.0608,0.0622,0.0671,0.066,0.0683,0.0598,0.057,0.0426,0.0256,0.0228,0.0118,0.0058,-0.0045,-0.0047,-0.0045,-0.0046,-0.0184,-0.0032,-0.0032,-0.0032,-0.0032,0,0.0323,0.04,0.0482,0.0541,0.0644,0.0658,0.0756,0.0761,0.0805,0.0886,0.0776,0.0815,0.0595,0.0497,0.0314,0.0147,0.0161,-0.0021,-0.0056,-0.0015,-0.0014,-0.0195,-0.0301,-0.0034,-0.0034,-0.0033,-0.0033,0,0.0372,0.0427,0.0553,0.0649,0.0679,0.0753,0.0861,0.0938,0.0952,0.1049,0.1048,0.0992,0.0871,0.0641,0.0429,0.025,-0.0026,-0.0002,0.0064,0.0038,-0.0228,-0.0331,-0.0507,-0.058,-0.0121,-0.0121,-0.0122,0,0.0411,0.0483,0.0633,0.0711,0.0757,0.0866,0.0945,0.1006,0.1109,0.1171,0.1234,0.1146,0.113,0.0818,0.0487,0.018,-0.0016,-0.0001,-0.0056,-0.0223,-0.0364,-0.0447,-0.0502,-0.0025,-0.0025,-0.0024,-0.0024,0,0.0489,0.0539,0.064,0.08,0.0907,0.1046,0.1166,0.1271,0.1349,0.1447,0.1557,0.1547,0.1249,0.0985,0.0547,0.0319,-0.0109,-0.0003,-0.0192,-0.0306,-0.0388,-0.048,-0.0015,-0.002,-0.0021,-0.0021,-0.0021,-0.0021,0.0541,0.0622,0.0749,0.0898,0.1033,0.12,0.1321,0.1481,0.1665,0.1824,0.1808,0.1857,0.1423,0.0857,0.0523,-0.0064,-0.0097,-0.0245,-0.0357,-0.0427,-0.0495,-0.0017,-0.0054,-0.0054,-0.0055,-0.0055,-0.0055,0,0.061,0.0693,0.0834,0.1017,0.1173,0.1231,0.1454,0.16,0.1838,0.2011,0.2127,0.1967,0.145,0.0877,0.008,-0.0335,-0.0496,-0.0573,-0.0688,-0.0729,-0.031,-0.0303,-0.0373,-0.0373,-0.0373,-0.0372,-0.0372,-0.0372,0.0644,0.0776,0.0847,0.1094,0.1225,0.1433,0.1567,0.1803,0.1986,0.2232,0.2305,0.2313,0.1859,0.0452,-0.0474,-0.068,-0.0988,-0.1057,-0.1221,-0.0947,-0.0925,-0.0904,-0.0923,-0.1122,-0.1123,-0.1566,-0.157,-0.1574]}],[{"header":{"parameterUnit":"m.s-1","parameterCategory":2,"la1":30.2991,"la2":30.254,"lo1":-89.0895,"lo2":-89.0444,"dy":0.0017,"dx":0.0017,"nx":28,"ny":28,"refTime":"2025-12-06T09:00:00:Z","depth":"2","parameterNumber":2,"parameterNumberName":"U-component_of_CURRENTS"},"data":[0,0,0,0,0,0,0,0,0,0,0,0,0,0,0,0,0,0,0,0,0,0,0,0,0,0,0,0,0,0,0,0,0,0,0,0,0,0,0,0,0,0,0,0,0,0,0,0,0,0,0,0,0,0,0,0,0,0,0.3064,0.3065,0,0.3086,0.3087,0.3087,0.3103,0.3103,0.3103,0.3104,0.313,0.3131,0.3131,0,0,0,0,0,0,0,0,0,0,0,0,0,0.303,0.3031,0.3064,0.3065,0.3065,0.3086,0.3087,0.3087,0.3103,0.3103,0.3103,0.3104,0.313,0.3131,0.3131,0,0,0,0,0,0,0,0,0,0,0,0,0,0.3047,0.3031,0.3064,0.3076,0.3077,0.3086,0.3087,0.3087,0.3103,0.3103,0.3104,0.3104,0.313,0.3131,0.3132,0.313,0,0,0.3134,0.3134,0,0,0,0,0,0,0,0,0.3046,0.3049,0.3074,0.3075,0.3077,0.3093,0.3085,0.3102,0.3103,0.3092,0.3104,0.3104,0.3119,0.312,0.3123,0.3132,0.3133,0.3134,0.3135,0.3135,0.3135,0,0,0,0,0,0,0,0.3045,0.3048,0.3072,0.3074,0.3076,0.3078,0.3081,0.3088,0.3103,0.3093,0.3095,0.3098,0.3119,0.3122,0.3123,0.3133,0.3134,0.3135,0.3135,0.3135,0.3209,0.321,0,0,0,0,0,0,0.3044,0.3047,0.3072,0.3073,0.3063,0.3079,0.3082,0.3087,0.3103,0.3106,0.3098,0.3099,0.312,0.3123,0.3124,0.3176,0.3135,0.3136,0.3136,0.3207,0.3209,0.3211,0,0,0,0,0,0,0.3043,0.3046,0.3071,0.3061,0.3064,0.3079,0.3085,0.3087,0.3105,0.3107,0.3109,0.3116,0.3121,0.3123,0.3156,0.3176,0.3136,0.3137,0.3206,0.3208,0.321,0.3247,0,0,0,0,0,0,0.3042,0.3046,0.3045,0.3061,0.3065,0.3091,0.3084,0.3087,0.3106,0.3108,0.3122,0.3124,0.3121,0.3155,0.3156,0.3176,0.3137,0.3204,0.3207,0.3209,0.3243,0.325,0.3255,0,0,0,0,0,0.3041,0.3033,0.3045,0.3048,0.3065,0.3092,0.3095,0.3105,0.3107,0.3121,0.3137,0.3124,0.3173,0.3157,0.3158,0.3178,0.3202,0.3206,0.3209,0.3241,0.3248,0.3255,0,0,0,0,0,0,0.3001,0.3035,0.3048,0.3047,0.3078,0.3095,0.3106,0.3115,0.3137,0.3143,0.3142,0.3146,0.3186,0.3179,0.316,0.321,0.3186,0.319,0.321,0.3217,0.3223,0.3226,0.3138,0,0,0,0,0,0.2997,0.3019,0.3045,0.3052,0.3069,0.3093,0.3103,0.3117,0.3138,0.3148,0.3163,0.3179,0.3198,0.3205,0.3224,0.3244,0.3258,0.326,0.3266,0.3271,0.3276,0.3327,0.3338,0.3222,0.3222,0.3221,0,0,0.2986,0.3008,0.3019,0.3049,0.3075,0.31,0.3101,0.313,0.3151,0.3147,0.3188,0.3206,0.3212,0.3244,0.326,0.324,0.3312,0.3275,0.3279,0.3282,0.3331,0.3343,0.3353,0.3224,0.3223,0.3223,0,0,0.2979,0.2999,0.3017,0.3048,0.3092,0.3111,0.3125,0.3161,0.318,0.3216,0.3226,0.3259,0.3282,0.3296,0.3301,0.3349,0.335,0.3355,0.3376,0.3424,0.3434,0.3443,0.3476,0.3488,0.3347,0.3347,0.3347,0,0.2969,0.299,0.3025,0.3053,0.3079,0.3121,0.3146,0.317,0.3213,0.3237,0.3237,0.3303,0.3305,0.3346,0.336,0.3362,0.3387,0.3345,0.3432,0.3441,0.3449,0.3481,0.3493,0.3349,0.3349,0.3349,0.3349,0,0.2972,0.3,0.3018,0.3074,0.3104,0.3139,0.3182,0.3219,0.3249,0.3277,0.334,0.3357,0.3395,0.34,0.3389,0.3451,0.345,0.3441,0.3411,0.3463,0.3494,0.3506,0.3352,0.3352,0.3351,0.335,0,0,0.2935,0.3007,0.3016,0.3047,0.3122,0.3145,0.3198,0.3255,0.3299,0.3343,0.3399,0.343,0.3456,0.3465,0.3469,0.3499,0.3572,0.3493,0.3494,0.3521,0.368,0.363,0.3638,0.3584,0.3586,0.3588,0.3678,0,0.2937,0.2982,0.302,0.3075,0.3107,0.3169,0.3215,0.3274,0.3333,0.3402,0.3436,0.3497,0.3475,0.3505,0.3534,0.3576,0.3606,0.3548,0.363,0.3633,0.3578,0.3651,0.3362,0.3413,0.3689,0.3691,0.3693,0,0.2926,0.2964,0.3008,0.3087,0.3107,0.3142,0.3238,0.3285,0.3389,0.3445,0.3517,0.3558,0.3621,0.3594,0.3683,0.3652,0.3669,0.3687,0.3691,0.3639,0.3605,0.3407,0.3425,0.3713,0.3711,0.371,0.3708,0,0.288,0.2955,0.2988,0.3017,0.3109,0.3139,0.3191,0.3296,0.3359,0.3484,0.3552,0.3636,0.3693,0.3735,0.3771,0.3742,0.3868,0.383,0.3797,0.3793,0.356,0.3532,0.3891,0.3891,0.389,0.389,0.389,0,0.2861,0.289,0.2968,0.2989,0.3038,0.3112,0.3183,0.3261,0.3387,0.3467,0.3568,0.3648,0.3735,0.3809,0.3818,0.3857,0.391,0.3821,0.3823,0.3565,0.3537,0.3801,0.3789,0.3893,0.3893,0.3892,0.3891,0,0.2803,0.2855,0.2901,0.299,0.3016,0.3051,0.3169,0.3229,0.3362,0.3472,0.3519,0.3688,0.3794,0.3862,0.3953,0.392,0.3958,0.395,0.3639,0.3603,0.3834,0.3823,0.3926,0.3925,0.3924,0.3923,0.3923,0,0.2776,0.2793,0.2882,0.2907,0.2945,0.301,0.3059,0.3201,0.3273,0.348,0.3524,0.369,0.3781,0.3915,0.39,0.393,0.3977,0.3662,0.3545,0.3851,0.3843,0.3833,0.3824,0.3247,0.3241,0.3236,0.3232,0,0.2729,0.2763,0.2798,0.285,0.2896,0.2944,0.3022,0.3074,0.3237,0.3338,0.3476,0.3575,0.3728,0.3649,0.3712,0.3678,0.3635,0.3565,0.3978,0.3291,0.3221,0.321,0.3221,0.3189,0.3193,0.3196,0.3199,0.32,0.269,0.2698,0.2745,0.2779,0.2828,0.2849,0.2845,0.294,0.3021,0.3125,0.3308,0.3353,0.3427,0.3386,0.3295,0.3219,0.3463,0.3288,0.3299,0.3316,0.3229,0.3163,0.3103,0.3106,0.3109,0.3112,0.3115,0,0.2631,0.2642,0.2671,0.269,0.2683,0.2754,0.2793,0.2757,0.2777,0.2923,0.3014,0.2829,0.2819,0.2874,0.2704,0.272,0.2645,0.2596,0.2461,0.251,0.2552,0.242,0.2082,0.2078,0.2075,0.2071,0,0,0.2596,0.2584,0.2585,0.2531,0.2546,0.2485,0.2475,0.245,0.2493,0.2482,0.2491,0.2728,0.283,0.242,0.2379,0.2197,0.2325,0.2113,0.2955,0.2848,0.2885,0.2984,0.2843,0,0,0,0,0]},{"header":{"parameterUnit":"m.s-1","parameterCategory":2,"la1":30.2991,"la2":30.254,"lo1":-89.0895,"lo2":-89.0444,"dy":0.0017,"dx":0.0017,"nx":28,"ny":28,"refTime":"2025-12-06T09:00:00:Z","depth":"2","parameterNumber":3,"parameterNumberName":"V-component_of_CURRENTS"},"data":[0,0,0,0,0,0,0,0,0,0,0,0,0,0,0,0,0,0,0,0,0,0,0,0,0,0,0,0,0,0,0,0,0,0,0,0,0,0,0,0,0,0,0,0,0,0,0,0,0,0,0,0,0,0,0,0,0,0,0.0305,0.0304,0,0.0252,0.0251,0.025,0.0204,0.0203,0.0203,0.0202,0.0109,0.0106,0.0104,0,0,0,0,0,0,0,0,0,0,0,0,0,0.0316,0.0316,0.0305,0.0304,0.0304,0.0252,0.0251,0.025,0.0204,0.0203,0.0203,0.0202,0.0109,0.0107,0.0104,0,0,0,0,0,0,0,0,0,0,0,0,0,0.029,0.0316,0.0305,0.0275,0.0272,0.0252,0.0251,0.025,0.0204,0.0203,0.0203,0.0202,0.011,0.0107,0.0104,0.0096,0,0,0.0094,0.0093,0,0,0,0,0,0,0,0,0.0292,0.029,0.028,0.0277,0.0274,0.0235,0.022,0.0197,0.0204,0.0228,0.0202,0.0202,0.0148,0.0142,0.0132,0.0092,0.0088,0.0094,0.0092,0.009,0.009,0,0,0,0,0,0,0,0.0294,0.0292,0.0282,0.028,0.0276,0.0248,0.0244,0.0215,0.019,0.0226,0.0223,0.022,0.0146,0.0135,0.0129,0.0086,0.0094,0.0091,0.0089,0.0088,0.0017,0.0017,0,0,0,0,0,0,0.0307,0.0294,0.0284,0.0281,0.0283,0.0248,0.0244,0.0247,0.0191,0.0183,0.022,0.0218,0.0141,0.0133,0.0126,0.0114,0.009,0.0087,0.0086,0.0017,0.0017,0.0017,0,0,0,0,0,0,0.0307,0.0307,0.0286,0.0287,0.0282,0.0249,0.0253,0.0246,0.0234,0.0188,0.0178,0.0215,0.014,0.013,0.0102,0.011,0.0086,0.0083,0.0017,0.0017,0.0017,0.0089,0,0,0,0,0,0,0.0308,0.0307,0.0314,0.0288,0.0283,0.0279,0.0253,0.0246,0.0234,0.023,0.018,0.0171,0.0139,0.0107,0.0099,0.0105,0.0081,0.0017,0.0017,0.0017,0.0087,0.0092,0.0096,0,0,0,0,0,0.0309,0.0327,0.0315,0.0314,0.0293,0.028,0.0275,0.0248,0.0234,0.0234,0.0199,0.0172,0.0102,0.0105,0.0095,0.01,0.0017,0.0017,0.0017,0.0085,0.0091,0.0096,0,0,0,0,0,0,0.0335,0.0323,0.0309,0.0322,0.0303,0.0273,0.0273,0.0253,0.0226,0.0222,0.0175,0.0163,0.014,0.011,0.0114,0.0078,0.0054,0.0052,0.0109,0.0114,0.0119,0.014,0.0078,0,0,0,0,0,0.0345,0.0353,0.0332,0.0339,0.0335,0.0303,0.0295,0.0278,0.0251,0.0238,0.0202,0.0164,0.0133,0.0116,0.0083,0.0067,0.0037,0.0062,0.0067,0.0071,0.008,0.0043,0.0045,0.0018,0.0018,0.0018,0,0,0.0355,0.035,0.0354,0.0345,0.0329,0.0332,0.0297,0.0291,0.0289,0.0233,0.0218,0.0179,0.0132,0.0112,0.0099,0.0088,0.0062,0.0071,0.0075,0.0082,0.0043,0.0046,0.0049,0.0018,0.0018,0.0018,0,0,0.0386,0.0379,0.0397,0.0386,0.0371,0.0355,0.0357,0.0329,0.0312,0.0293,0.0252,0.0221,0.0172,0.0142,0.0121,0.013,0.0087,0.0116,0.0158,0.0122,0.0124,0.0126,0.0092,0.009,0.0119,0.012,0.012,0,0.0398,0.042,0.0398,0.041,0.0412,0.0371,0.039,0.0367,0.0331,0.0326,0.0298,0.0232,0.0188,0.0168,0.0168,0.0142,0.0115,0.0145,0.013,0.0131,0.0131,0.0095,0.0092,0.0123,0.0123,0.0122,0.0122,0,0.0441,0.0455,0.0465,0.047,0.0467,0.0476,0.0449,0.0435,0.041,0.039,0.0361,0.0297,0.0262,0.0238,0.0204,0.0189,0.0166,0.0141,0.0121,0.0139,0.0099,0.0095,0.0128,0.0127,0.0126,0.0125,0,0,0.0473,0.0494,0.0495,0.0514,0.0503,0.0509,0.0505,0.0499,0.0513,0.0455,0.0459,0.039,0.0359,0.0331,0.028,0.0242,0.0214,0.0199,0.0195,0.0175,0.0136,0.0118,0.011,0.0188,0.0187,0.0187,0.0107,0,0.0512,0.056,0.0555,0.0596,0.0621,0.0589,0.0594,0.058,0.0563,0.0554,0.0479,0.0465,0.0394,0.0382,0.0331,0.0249,0.0206,0.0238,0.0113,0.0109,0.0099,0.0106,0.0132,0.0063,0.0103,0.0102,0.0101,0,0.0555,0.0586,0.0638,0.0672,0.068,0.0692,0.0709,0.0713,0.0686,0.0674,0.0638,0.0582,0.0519,0.0454,0.032,0.0345,0.0249,0.0175,0.017,0.0127,0.0083,0.005,0.0053,0.0093,0.0094,0.0095,0.0095,0,0.0599,0.0644,0.0693,0.0702,0.0729,0.0741,0.0754,0.075,0.0783,0.0757,0.0774,0.0681,0.0647,0.0512,0.0352,0.0339,0.0201,0.0162,0.0052,0.005,0.0034,0.0031,0.0066,0.0066,0.0066,0.0066,0.0066,0,0.0647,0.0684,0.0718,0.0744,0.0807,0.0802,0.0869,0.0863,0.0888,0.0943,0.0846,0.0861,0.0661,0.0554,0.039,0.0215,0.0228,0.0064,0.003,0.0059,0.006,0.0055,0.0055,0.0063,0.0064,0.0064,0.0065,0,0.0685,0.0704,0.0767,0.081,0.083,0.0875,0.0955,0.1013,0.1015,0.108,0.1077,0.1003,0.0868,0.0656,0.0444,0.0284,0.0106,0.0036,0.0085,0.0058,-0.0034,-0.003,-0.0092,-0.0094,-0.0095,-0.0096,-0.0096,0,0.0709,0.0745,0.0821,0.087,0.0892,0.0967,0.1029,0.107,0.1149,0.1175,0.1216,0.1109,0.1057,0.0736,0.0437,0.0149,0.0107,-0.0021,-0.0049,-0.0022,-0.005,-0.0044,-0.0038,-0.0046,-0.0046,-0.0046,-0.0047,0,0.0757,0.078,0.0836,0.0941,0.1016,0.1118,0.121,0.129,0.1344,0.1402,0.1452,0.141,0.1104,0.0824,0.0422,0.0226,0.0024,-0.0035,-0.0018,-0.0005,0.0016,-0.0009,-0.0004,-0.0049,-0.0048,-0.0048,-0.0048,-0.0048,0.0791,0.084,0.0917,0.1018,0.1116,0.1248,0.1343,0.1457,0.1586,0.1669,0.1627,0.1571,0.1234,0.0735,0.038,0.0007,0.0025,-0.0109,-0.0107,-0.0104,-0.0079,-0.006,-0.0135,-0.0136,-0.0136,-0.0136,-0.0136,0,0.0838,0.0899,0.0993,0.1118,0.1236,0.1283,0.1455,0.1558,0.1715,0.1782,0.1822,0.1507,0.1185,0.0792,0.0241,-0.0085,-0.0109,-0.0189,-0.015,-0.0144,-0.0141,-0.0117,-0.0184,-0.0186,-0.0187,-0.0188,0,0,0.0866,0.0959,0.1009,0.1195,0.1291,0.1457,0.1561,0.1709,0.1803,0.1875,0.1849,0.1783,0.1305,0.0899,0.045,0.0129,0.0069,0.0068,0.0143,0.0248,0.0256,-0.0058,-0.0011,0,0,0,0,0]}],[{"header":{"parameterUnit":"m.s-1","parameterCategory":2,"la1":30.2991,"la2":30.254,"lo1":-89.0895,"lo2":-89.0444,"dy":0.0017,"dx":0.0017,"nx":28,"ny":28,"refTime":"2025-12-06T09:00:00:Z","depth":"4","parameterNumber":2,"parameterNumberName":"U-component_of_CURRENTS"},"data":[0,0,0,0,0,0,0,0,0,0,0,0,0,0,0,0,0,0,0,0,0,0,0,0,0,0,0,0,0,0,0,0,0,0,0,0,0,0,0,0,0,0,0,0,0,0,0,0,0,0,0,0,0,0,0,0,0,0,0.1898,0.1899,0,0.2001,0.2002,0.2003,0.2074,0.2075,0.2076,0.2076,0.2193,0.2195,0.2198,0,0,0,0,0,0,0,0,0,0,0,0,0,0.1757,0.1759,0.1898,0.19,0.1901,0.2001,0.2002,0.2003,0.2074,0.2075,0.2076,0.2077,0.2192,0.2195,0.2198,0,0,0,0,0,0,0,0,0,0,0,0,0,0.1832,0.176,0.1898,0.195,0.1956,0.2001,0.2002,0.2004,0.2074,0.2075,0.2076,0.2077,0.2191,0.2195,0.2198,0.2197,0,0,0.2209,0.2211,0,0,0,0,0,0,0,0,0.1828,0.1837,0.1941,0.1947,0.1954,0.2029,0.1996,0.207,0.2073,0.2026,0.2076,0.2078,0.214,0.2148,0.2161,0.2202,0.2207,0.2209,0.2212,0.2213,0.2214,0,0,0,0,0,0,0,0.1823,0.1833,0.1936,0.1943,0.195,0.1968,0.1979,0.201,0.2073,0.203,0.2036,0.2052,0.2144,0.2157,0.2164,0.2209,0.2209,0.2213,0.2215,0.2216,0.2385,0.2387,0,0,0,0,0,0,0.1815,0.1828,0.1933,0.1939,0.1896,0.1969,0.1982,0.2001,0.2073,0.2086,0.2051,0.2055,0.215,0.216,0.2168,0.2285,0.2213,0.2216,0.2219,0.2382,0.2385,0.2388,0,0,0,0,0,0,0.1811,0.1823,0.1929,0.1888,0.1903,0.1971,0.1991,0.2002,0.206,0.2089,0.2102,0.2102,0.2152,0.2163,0.224,0.2285,0.2218,0.2221,0.238,0.2383,0.2386,0.2444,0,0,0,0,0,0,0.1807,0.1821,0.1851,0.1888,0.1905,0.1982,0.1991,0.2004,0.2066,0.2073,0.2136,0.2145,0.2153,0.2235,0.2243,0.2289,0.2224,0.2377,0.2381,0.2385,0.2439,0.2449,0.2457,0,0,0,0,0,0.1802,0.183,0.1851,0.1865,0.1937,0.1984,0.1995,0.2044,0.2068,0.2099,0.2148,0.2146,0.2269,0.2239,0.2249,0.2297,0.2374,0.238,0.2385,0.2435,0.2447,0.2457,0,0,0,0,0,0,0.1787,0.1842,0.1865,0.1911,0.1958,0.1998,0.204,0.2067,0.213,0.2153,0.2174,0.2188,0.2275,0.2279,0.2246,0.236,0.2322,0.2329,0.2356,0.2368,0.2377,0.2369,0.2227,0,0,0,0,0,0.1795,0.1836,0.1883,0.1927,0.1955,0.2005,0.2038,0.2072,0.2123,0.2153,0.2198,0.2248,0.2295,0.2327,0.2369,0.2427,0.243,0.2466,0.2475,0.2482,0.2485,0.2533,0.2546,0.2405,0.2405,0.2405,0,0,0.1801,0.184,0.1864,0.1928,0.1972,0.2018,0.2029,0.2095,0.2143,0.2155,0.225,0.2289,0.2321,0.2393,0.2431,0.2407,0.2526,0.2489,0.2495,0.2493,0.2539,0.2553,0.2565,0.2409,0.2408,0.2407,0,0,0.1821,0.1872,0.1908,0.1953,0.2028,0.2058,0.2086,0.2153,0.2199,0.228,0.2307,0.2372,0.2448,0.2476,0.2496,0.2581,0.2577,0.2605,0.2641,0.2688,0.27,0.271,0.2731,0.2742,0.2603,0.2604,0.2604,0,0.183,0.1881,0.1927,0.1976,0.2022,0.208,0.2129,0.2179,0.2266,0.2308,0.2325,0.2455,0.2482,0.2557,0.2588,0.2601,0.2621,0.2593,0.2698,0.2708,0.2718,0.2737,0.2749,0.2607,0.2607,0.2606,0.2606,0,0.1863,0.1924,0.1955,0.2034,0.2085,0.2144,0.2211,0.2278,0.2342,0.2387,0.2498,0.2543,0.2614,0.2638,0.264,0.2725,0.2717,0.2707,0.2664,0.2735,0.2751,0.2762,0.2612,0.2611,0.261,0.2609,0,0,0.1833,0.1953,0.197,0.202,0.2126,0.2166,0.2258,0.2343,0.2411,0.2499,0.2583,0.2666,0.27,0.2725,0.2746,0.2784,0.2864,0.2779,0.278,0.2788,0.2964,0.2778,0.2772,0.2881,0.2883,0.2885,0.2947,0,0.1852,0.1943,0.2001,0.2098,0.2151,0.2235,0.231,0.2399,0.2483,0.2579,0.2642,0.2737,0.273,0.2782,0.282,0.2865,0.2898,0.2847,0.2903,0.2905,0.2722,0.278,0.2893,0.2956,0.2958,0.296,0.2961,0,0.1857,0.1924,0.2017,0.2137,0.2169,0.2236,0.2369,0.2444,0.2576,0.265,0.2747,0.2804,0.2893,0.2874,0.2971,0.2946,0.2961,0.2977,0.298,0.2791,0.2739,0.2872,0.2981,0.298,0.2978,0.2977,0.2976,0,0.1801,0.1931,0.2007,0.2052,0.2192,0.2258,0.2338,0.2472,0.2551,0.2707,0.2783,0.2889,0.2964,0.3009,0.3048,0.3029,0.3134,0.3107,0.2949,0.2936,0.3058,0.3046,0.3165,0.3164,0.3164,0.3164,0.3164,0,0.1778,0.1845,0.1995,0.2038,0.2136,0.2243,0.2358,0.2457,0.2604,0.269,0.2818,0.289,0.3008,0.3075,0.3085,0.3047,0.3168,0.2958,0.2941,0.3081,0.3071,0.3065,0.3053,0.3166,0.3166,0.3165,0.3165,0,0.1702,0.1802,0.1899,0.2059,0.2114,0.2186,0.2364,0.2437,0.2594,0.2712,0.2769,0.2929,0.3008,0.3086,0.3167,0.3076,0.3072,0.3027,0.3174,0.3165,0.283,0.282,0.2844,0.2838,0.2833,0.2829,0.2825,0,0.1667,0.1713,0.1894,0.1954,0.2035,0.2162,0.2242,0.2418,0.2489,0.2701,0.2732,0.2883,0.2961,0.2921,0.3019,0.3023,0.2987,0.2957,0.2877,0.2816,0.2799,0.2798,0.2795,0.2817,0.2816,0.2814,0.2813,0,0.1602,0.1684,0.1763,0.1885,0.1985,0.2076,0.2199,0.2237,0.242,0.2587,0.2634,0.2675,0.2755,0.28,0.2829,0.2826,0.296,0.2903,0.2913,0.2837,0.2784,0.2772,0.2775,0.2795,0.2798,0.28,0.2801,0,0.1554,0.159,0.1702,0.1792,0.1904,0.1944,0.203,0.2104,0.2194,0.2412,0.2423,0.2575,0.2725,0.2699,0.2726,0.271,0.266,0.2558,0.2585,0.2605,0.2497,0.2393,0.2271,0,0,0,0,0,0.1495,0.152,0.1597,0.1677,0.1777,0.1839,0.1976,0.2061,0.2233,0.2204,0.2305,0.2364,0.2404,0.2487,0.2422,0.2622,0.2674,0.2533,0.2571,0.2698,0.2718,0.2612,0,0,0,0,0,0,0.1454,0.1524,0.1553,0.1558,0.1584,0.1671,0.1749,0.1869,0.1858,0.2042,0.2077,0.2216,0.2294,0.2415,0.2375,0.2399,0.2372,0.2634,0.2628,0.2686,0.2705,0.2721,0.2619,0,0,0,0,0]},{"header":{"parameterUnit":"m.s-1","parameterCategory":2,"la1":30.2991,"la2":30.254,"lo1":-89.0895,"lo2":-89.0444,"dy":0.0017,"dx":0.0017,"nx":28,"ny":28,"refTime":"2025-12-06T09:00:00:Z","depth":"4","parameterNumber":3,"parameterNumberName":"V-component_of_CURRENTS"},"data":[0,0,0,0,0,0,0,0,0,0,0,0,0,0,0,0,0,0,0,0,0,0,0,0,0,0,0,0,0,0,0,0,0,0,0,0,0,0,0,0,0,0,0,0,0,0,0,0,0,0,0,0,0,0,0,0,0,0,0.0297,0.0297,0,0.0259,0.0258,0.0258,0.0235,0.0234,0.0234,0.0234,0.017,0.0168,0.0166,0,0,0,0,0,0,0,0,0,0,0,0,0,0.0306,0.0306,0.0297,0.0297,0.0296,0.0259,0.0258,0.0258,0.0235,0.0234,0.0234,0.0234,0.017,0.0168,0.0166,0,0,0,0,0,0,0,0,0,0,0,0,0,0.0288,0.0306,0.0297,0.028,0.0278,0.0259,0.0258,0.0258,0.0235,0.0234,0.0234,0.0234,0.0171,0.0168,0.0166,0.0155,0,0,0.0159,0.0158,0,0,0,0,0,0,0,0,0.029,0.0288,0.0283,0.0281,0.0279,0.0251,0.0238,0.0222,0.0235,0.0251,0.0234,0.0234,0.0195,0.019,0.0184,0.0152,0.0149,0.0158,0.0157,0.0156,0.0155,0,0,0,0,0,0,0,0.0291,0.0289,0.0282,0.0283,0.028,0.0259,0.0257,0.0234,0.0224,0.025,0.0248,0.0244,0.0193,0.0186,0.0182,0.0148,0.0158,0.0156,0.0155,0.0154,0.0097,0.0097,0,0,0,0,0,0,0.0298,0.0291,0.0283,0.0281,0.0284,0.0259,0.0257,0.026,0.0225,0.0219,0.0244,0.0243,0.019,0.0185,0.018,0.0174,0.0156,0.0154,0.0152,0.0097,0.0097,0.0097,0,0,0,0,0,0,0.0299,0.0298,0.0285,0.0284,0.0281,0.026,0.0264,0.026,0.0257,0.022,0.0214,0.0245,0.019,0.0183,0.0165,0.017,0.0153,0.015,0.0097,0.0097,0.0097,0.0155,0,0,0,0,0,0,0.0299,0.0299,0.0307,0.0285,0.0282,0.028,0.0264,0.0259,0.0254,0.0252,0.022,0.0213,0.0189,0.0169,0.0163,0.0167,0.0148,0.0097,0.0097,0.0097,0.0153,0.0157,0.016,0,0,0,0,0,0.03,0.0314,0.0308,0.0307,0.0293,0.0281,0.0277,0.026,0.0254,0.0256,0.0234,0.0214,0.0164,0.0167,0.016,0.0163,0.0097,0.0097,0.0097,0.0152,0.0157,0.016,0,0,0,0,0,0,0.032,0.0312,0.0306,0.0316,0.0302,0.0277,0.0279,0.0266,0.0251,0.0251,0.0217,0.0209,0.0194,0.0169,0.0174,0.0145,0.0126,0.0124,0.017,0.0174,0.0177,0.0193,0.0146,0,0,0,0,0,0.033,0.0339,0.0321,0.0329,0.0326,0.0304,0.0298,0.0287,0.0268,0.0262,0.0238,0.0211,0.0186,0.0174,0.0149,0.0137,0.0108,0.0131,0.0135,0.0138,0.0145,0.0108,0.0109,0.0097,0.0097,0.0097,0,0,0.0339,0.0336,0.034,0.0334,0.0323,0.0325,0.03,0.0297,0.0297,0.0257,0.0252,0.0224,0.0185,0.0171,0.0161,0.0153,0.0126,0.0138,0.0141,0.0146,0.0108,0.0109,0.011,0.0097,0.0097,0.0097,0,0,0.036,0.0361,0.0374,0.0367,0.0357,0.0345,0.0348,0.0328,0.0319,0.0308,0.0278,0.0255,0.0221,0.0195,0.0176,0.0183,0.0145,0.0172,0.0204,0.0168,0.0169,0.017,0.0134,0.0131,0.0174,0.0175,0.0175,0,0.037,0.0388,0.0375,0.0383,0.0385,0.0359,0.0372,0.0357,0.0333,0.033,0.0315,0.0264,0.0232,0.0211,0.0212,0.0192,0.0166,0.0194,0.0174,0.0174,0.0174,0.0136,0.0132,0.0177,0.0177,0.0177,0.0177,0,0.0397,0.0412,0.042,0.0426,0.0426,0.0433,0.0414,0.0408,0.0395,0.0381,0.036,0.0312,0.0285,0.0266,0.0241,0.0222,0.0202,0.0184,0.0168,0.0179,0.0138,0.0133,0.0181,0.018,0.018,0.0179,0,0,0.0415,0.0437,0.0439,0.0456,0.0453,0.0457,0.0457,0.0454,0.0465,0.0427,0.0429,0.0377,0.0356,0.0333,0.0293,0.0258,0.0228,0.0226,0.0223,0.0199,0.015,0.0131,0.0122,0.0209,0.0208,0.0208,0.0122,0,0.044,0.0476,0.0477,0.0511,0.0529,0.0513,0.0519,0.0512,0.0503,0.0497,0.044,0.0429,0.038,0.0372,0.0328,0.0256,0.0217,0.0253,0.0135,0.0132,0.0121,0.0117,0.0206,0.0118,0.0117,0.0116,0.0115,0,0.0463,0.0489,0.0531,0.0565,0.0571,0.0586,0.0605,0.061,0.0591,0.0584,0.0557,0.0516,0.046,0.0416,0.0298,0.0324,0.0245,0.0182,0.0177,0.0137,0.0103,0.0103,0.0105,0.0106,0.0106,0.0107,0.0108,0,0.0486,0.0526,0.0567,0.0576,0.0605,0.0622,0.0637,0.0639,0.0665,0.0646,0.0659,0.0582,0.0551,0.0441,0.0309,0.0306,0.0173,0.0149,0.0053,0.005,0.0068,0.0069,0.0063,0.0063,0.0063,0.0063,0.0064,0,0.0508,0.0542,0.0585,0.0605,0.066,0.0665,0.0724,0.0722,0.0744,0.0781,0.0713,0.0712,0.0558,0.0461,0.0331,0.0178,0.0186,0.0058,0.0028,0.0094,0.0098,0.0064,0.0065,0.006,0.0061,0.0062,0.0062,0,0.0521,0.0548,0.0601,0.065,0.0673,0.0712,0.079,0.0834,0.0843,0.0885,0.0883,0.0811,0.0685,0.0519,0.0336,0.0218,0.0066,0.0007,0.0093,0.0069,-0.004,-0.0035,-0.0107,-0.0109,-0.011,-0.0111,-0.0112,0,0.0528,0.0558,0.0637,0.0681,0.0709,0.0779,0.0835,0.0878,0.0931,0.0944,0.0962,0.0863,0.0786,0.0522,0.0338,0.0082,0.004,-0.0045,-0.005,-0.0035,-0.0057,-0.005,-0.0044,-0.0113,-0.0114,-0.0114,-0.0114,0,0.0543,0.0575,0.0622,0.0717,0.0788,0.0875,0.0954,0.0998,0.1044,0.1056,0.1028,0.089,0.0743,0.0528,0.0328,0.0143,0.0007,-0.0058,-0.0057,-0.0062,-0.0043,-0.0063,-0.0055,-0.0118,-0.0118,-0.0117,-0.0117,0,0.0556,0.0592,0.0663,0.0747,0.0844,0.0937,0.098,0.1038,0.1087,0.1093,0.108,0.0922,0.0834,0.0559,0.0377,0.019,0.0135,0.0063,0.0057,0.0059,0.0126,0.0176,0.0143,0,0,0,0,0,0.0566,0.0612,0.0689,0.0784,0.0886,0.0948,0.1047,0.1085,0.1125,0.1115,0.1101,0.0963,0.0695,0.0586,0.0397,0.0336,0.0091,0.0104,0.0003,-0.0141,-0.0136,-0.0089,0,0,0,0,0,0,0.0573,0.0645,0.0685,0.0807,0.0879,0.0998,0.1066,0.1095,0.109,0.1096,0.0964,0.09,0.0647,0.0804,0.0389,0.0333,0.0238,-0.0016,-0.002,-0.0143,-0.0139,-0.0135,-0.0085,0,0,0,0,0]}]]